Temp
5 5 5 4 4 6 7 7 7 7 7 7 7 7 7 8 8 8 8 7 7 7 7 6 6 6 6 6 6 5 5 5 4 4 4 3 3 3 3 2 2 1 1 1
4 4 4 3 3 5 7 7 7 7 7 7 7 8 8 8 8 8 7 7 7 7 7 6 6 6 6 5 5 5 5 4 4 4 3 3 3 3 2 2 2 2 2 1
2 3 2 1 2 4 6 6 7 7 7 7 7 8 8 8 8 8 7 7 7 7 6 6 6 6 6 5 5 4 4 3 3 3 3 3 3 3 2 2 2 2 2 1
2 2 -1 1 3 5 6 6 6 7 7 7 7 7 8 8 8 8 7 7 7 6 6 6 6 5 5 5 4 4 4 3 3 3 3 3 2 2 2 2 2 1 1 1
2 1 1 2 4 5 5 5 7 7 7 7 7 7 7 7 7 7 7 6 6 6 6 6 5 4 4 4 4 3 3 3 3 3 3 3 3 2 2 2 2 1 1 -1
1 2 -1 3 4 4 5 5 6 6 7 7 7 7 7 7 7 7 6 6 6 6 6 5 5 4 4 4 3 3 3 3 3 3 2 2 2 2 2 2 1 -0 -1 -2
0 0 2 3 4 4 4 5 6 6 6 6 6 6 6 6 6 6 6 6 6 5 5 5 4 4 4 4 3 3 3 3 3 2 2 2 2 1 1 0 -1 -1 -2 -2
-1 -1 -1 3 3 4 4 4 5 6 5 5 6 6 6 6 6 6 6 5 5 5 4 4 4 4 4 3 3 2 2 2 2 2 2 1 1 0 -0 -1 -1 -2 -3 -4
-0 0 0 2 3 3 3 3 4 5 5 5 5 5 5 6 5 5 5 5 5 4 4 4 4 3 3 3 2 2 1 1 1 1 1 0 -0 -1 -1 -2 -3 -4 -5 -6
-0 1 1 1 2 2 3 2 3 5 4 4 4 4 5 4 4 4 4 4 4 4 4 4 3 3 3 2 1 1 1 1 1 0 -0 -1 -2 -2 -4 -5 -6 -6 -6 -7
0 1 1 1 2 3 2 2 2 3 4 4 4 3 3 3 3 3 3 3 3 3 3 3 3 3 2 2 1 1 0 -0 -0 -1 -2 -3 -4 -5 -6 -6 -7 -7 -8 -9
0 1 1 1 1 1 1 1 2 3 3 3 3 3 3 3 3 3 3 3 3 2 2 2 2 2 1 0 -0 -0 -1 -2 -3 -3 -4 -5 -6 -6 -7 -7 -7 -8 -8 -8
-0 1 1 1 1 0 1 0 1 2 0 1 1 1 1 2 2 2 2 2 2 2 2 1 1 0 -1 -1 -2 -4 -4 -4 -5 -6 -7 -6 -6 -6 -7 -8 -8 -8 -9 -10
-0 0 0 1 1 0 1 1 1 1 1 1 1 1 1 1 2 2 2 2 1 1 0 -1 -2 -2 -3 -4 -4 -5 -5 -6 -7 -7 -8 -8 -8 -9 -9 -9 -10 -10 -11 -12
-1 -0 0 1 1 1 1 1 1 1 1 1 1 2 1 1 1 1 0 0 -0 -1 -2 -3 -4 -5 -5 -6 -6 -7 -7 -8 -8 -8 -9 -9 -9 -10 -10 -11 -11 -12 -12 -12
-2 -0 0 0 1 0 0 0 0 0 -0 0 0 0 0 -0 -0 -1 -2 -3 -3 -3 -4 -5 -5 -6 -6 -7 -7 -8 -8 -9 -9 -9 -10 -10 -11 -11 -11 -12 -12 -12 -13 -13
-1 -0 -0 -0 -0 -0 -0 -0 -0 -0 -1 -1 -1 -1 -1 -1 -2 -3 -3 -3 -4 -4 -5 -6 -7 -7 -7 -8 -8 -9 -9 -10 -10 -10 -11 -11 -12 -12 -12 -12 -13 -14 -15 -16
-1 -1 -1 -1 -1 -1 -1 -1 -1 -1 -2 -2 -2 -3 -3 -3 -3 -4 -4 -5 -6 -6 -7 -7 -8 -8 -9 -9 -10 -10 -10 -11 -11 -11 -12 -12 -12 -13 -14 -15 -16 -16 -17 -17
-2 -1 -1 -1 -1 -2 -2 -2 -2 -2 -2 -3 -3 -4 -3 -4 -5 -6 -6 -7 -7 -8 -8 -8 -9 -9 -10 -10 -10 -11 -11 -12 -12 -12 -13 -13 -14 -15 -15 -16 -17 -17 -18 -19
-3 -2 -2 -2 -2 -2 -3 -3 -3 -3 -3 -3 -5 -5 -6 -6 -6 -7 -7 -8 -8 -9 -9 -9 -10 -10 -11 -11 -11 -12 -12 -12 -13 -13 -14 -14 -15 -16 -16 -17 -18 -19 -19 -20
-3 -4 -3 -3 -3 -3 -3 -3 -3 -4 -4 -5 -6 -7 -7 -7 -8 -8 -9 -9 -10 -10 -10 -10 -11 -11 -11 -12 -12 -12 -13 -13 -14 -14 -15 -15 -16 -17 -18 -19 -19 -20 -21 -22
-4 -4 -4 -4 -4 -4 -4 -4 -5 -6 -6 -7 -8 -8 -9 -9 -9 -10 -10 -10 -10 -11 -11 -11 -12 -12 -12 -13 -13 -14 -14 -14 -15 -15 -16 -17 -18 -18 -19 -20 -21 -23 -24 -25
-5 -4 -5 -4 -5 -6 -6 -7 -8 -8 -8 -9 -9 -10 -10 -10 -11 -11 -11 -11 -11 -11 -12 -12 -12 -13 -13 -14 -14 -15 -15 -15 -16 -17 -17 -18 -19 -20 -21 -22 -24 -25 -26 -27
-7 -7 -7 -8 -8 -8 -8 -9 -9 -10 -10 -10 -10 -11 -11 -12 -11 -11 -11 -11 -12 -12 -13 -13 -14 -14 -15 -15 -15 -16 -16 -17 -17 -18 -19 -20 -21 -22 -23 -25 -26 -27 -28 -28
-9 -9 -9 -9 -10 -10 -10 -10 -10 -10 -11 -11 -12 -11 -11 -11 -11 -12 -12 -12 -13 -14 -14 -14 -15 -15 -15 -16 -16 -17 -17 -18 -19 -20 -21 -22 -23 -24 -25 -27 -27 -28 -28 -28
-9 -10 -10 -10 -11 -11 -11 -11 -11 -12 -12 -12 -11 -12 -12 -12 -13 -13 -14 -14 -14 -15 -15 -15 -16 -16 -17 -17 -18 -18 -19 -20 -21 -22 -23 -24 -25 -26 -27 -27 -27 -27 -28 -28
-11 -11 -11 -11 -11 -12 -12 -13 -12 -12 -12 -12 -12 -12 -13 -14 -14 -14 -15 -15 -15 -16 -16 -16 -17 -17 -18 -18 -19 -20 -20 -21 -22 -23 -24 -25 -26 -26 -27 -27 -27 -27 -27 -27
Height
3015 3021 3023 3024 3026 3031 3033 3037 3039 3044 3044 3048 3050 3052 3053 3054 3056 3057 3058 3058 3060 3061 3060 3061 3062 3063 3064 3064 3065 3066 3067 3066 3066 3067 3067 3065 3064 3065 3065 3066 3065 3064 3063 3062
3010 3013 3018 3025 3024 3027 3029 3031 3034 3037 3038 3043 3045 3046 3047 3048 3050 3051 3053 3053 3056 3056 3056 3055 3057 3058 3059 3059 3059 3059 3060 3061 3060 3060 3059 3059 3059 3059 3059 3058 3056 3056 3055 3054
3001 3009 3015 3019 3013 3019 3022 3024 3028 3029 3033 3036 3037 3039 3041 3042 3043 3045 3047 3049 3051 3052 3052 3051 3051 3051 3052 3052 3053 3053 3052 3053 3053 3054 3054 3053 3052 3052 3050 3050 3050 3049 3048 3046
3001 3008 3010 2999 3008 3011 3015 3018 3021 3025 3027 3028 3029 3033 3034 3036 3038 3039 3041 3042 3045 3046 3047 3047 3047 3046 3045 3045 3044 3045 3046 3047 3046 3045 3044 3043 3043 3042 3043 3043 3042 3040 3038 3036
2997 3000 2999 3000 3003 3008 3010 3015 3016 3018 3023 3024 3025 3025 3027 3030 3032 3034 3035 3038 3040 3041 3041 3040 3039 3039 3040 3039 3039 3039 3039 3038 3037 3036 3035 3034 3034 3035 3035 3034 3033 3030 3029 3028
2992 2994 2993 2988 2998 3002 3006 3009 3011 3013 3017 3019 3020 3020 3021 3024 3027 3029 3031 3033 3035 3035 3035 3034 3033 3033 3032 3031 3031 3030 3030 3029 3028 3028 3028 3028 3028 3028 3027 3025 3024 3022 3020 3019
2987 2989 2988 2991 2991 2999 3001 3006 3008 3009 3011 3013 3013 3016 3018 3019 3022 3024 3026 3028 3028 3028 3028 3029 3028 3027 3026 3025 3023 3022 3022 3022 3021 3020 3020 3021 3020 3019 3018 3017 3016 3014 3012 3010
2984 2986 2987 2989 2992 2992 2996 2999 3002 3002 3004 3008 3009 3009 3012 3015 3016 3017 3019 3020 3021 3022 3022 3022 3023 3022 3020 3018 3017 3016 3015 3015 3014 3014 3013 3013 3012 3011 3010 3008 3006 3005 3003 3001
2982 2981 2985 2985 2987 2987 2988 2992 2995 2997 2998 3000 3003 3004 3006 3009 3011 3011 3012 3013 3014 3015 3015 3015 3016 3015 3012 3011 3010 3009 3009 3008 3007 3006 3005 3004 3003 3002 3000 2999 2997 2995 2992 2990
2979 2979 2981 2982 2982 2984 2984 2986 2991 2989 2992 2994 2997 2999 3002 3002 3003 3004 3006 3006 3007 3008 3008 3008 3007 3007 3005 3003 3003 3003 3002 3000 2999 2998 2997 2996 2994 2992 2991 2989 2987 2984 2981 2977
2974 2976 2977 2976 2977 2978 2982 2984 2987 2987 2986 2988 2991 2994 2996 2996 2998 2998 2998 3000 3001 3001 3001 2999 2997 2994 2994 2995 2994 2994 2994 2992 2991 2989 2987 2986 2984 2983 2981 2979 2976 2971 2967 2966
2970 2973 2973 2972 2970 2971 2971 2975 2978 2981 2982 2983 2986 2987 2989 2991 2991 2991 2992 2992 2994 2993 2993 2991 2989 2987 2985 2984 2983 2983 2983 2983 2982 2980 2978 2977 2975 2974 2971 2967 2965 2964 2963 2959
2968 2969 2969 2967 2967 2968 2971 2973 2974 2975 2976 2979 2980 2983 2983 2984 2985 2986 2986 2987 2986 2985 2985 2983 2981 2980 2978 2976 2976 2976 2975 2974 2973 2973 2972 2970 2968 2966 2965 2962 2959 2955 2952 2948
2963 2964 2963 2963 2963 2966 2967 2968 2969 2970 2971 2972 2972 2975 2976 2978 2979 2979 2979 2979 2978 2977 2976 2975 2974 2973 2971 2970 2970 2970 2969 2968 2966 2965 2964 2963 2960 2958 2955 2952 2949 2946 2943 2939
2955 2958 2960 2960 2960 2962 2962 2964 2965 2966 2966 2967 2967 2968 2970 2971 2972 2971 2972 2971 2971 2970 2969 2968 2967 2966 2965 2965 2965 2964 2962 2960 2957 2956 2954 2952 2950 2948 2945 2942 2939 2935 2932 2929
2948 2951 2953 2955 2955 2956 2958 2959 2959 2960 2960 2961 2963 2963 2963 2964 2964 2964 2964 2963 2963 2963 2962 2962 2962 2961 2960 2959 2957 2955 2953 2951 2950 2949 2947 2945 2942 2939 2936 2933 2929 2925 2921 2916
2941 2943 2947 2950 2951 2951 2953 2954 2953 2954 2955 2956 2957 2957 2957 2957 2957 2958 2957 2957 2957 2957 2956 2956 2955 2953 2952 2950 2949 2948 2947 2946 2944 2942 2940 2937 2934 2931 2928 2923 2918 2913 2908 2903
2935 2939 2942 2945 2946 2947 2948 2948 2948 2949 2950 2950 2951 2951 2951 2952 2952 2952 2952 2951 2951 2951 2950 2949 2948 2947 2946 2946 2945 2943 2942 2940 2937 2935 2932 2928 2924 2920 2915 2910 2905 2900 2895 2889
2929 2932 2936 2938 2939 2940 2941 2942 2943 2944 2945 2945 2945 2945 2946 2945 2945 2946 2946 2945 2945 2945 2945 2944 2944 2943 2942 2940 2939 2937 2935 2932 2929 2926 2921 2917 2912 2907 2902 2897 2891 2885 2879 2873
2923 2927 2930 2932 2934 2935 2936 2937 2937 2938 2938 2938 2938 2939 2939 2939 2940 2940 2941 2941 2941 2941 2941 2940 2939 2938 2936 2934 2932 2929 2926 2923 2919 2914 2910 2905 2900 2894 2888 2882 2876 2870 2864 2858
2919 2923 2926 2927 2927 2929 2930 2930 2929 2930 2931 2931 2932 2934 2935 2936 2937 2938 2939 2938 2938 2938 2937 2935 2934 2931 2929 2926 2923 2920 2916 2912 2908 2903 2897 2892 2886 2880 2873 2866 2860 2853 2847 2842
2913 2916 2918 2919 2920 2921 2922 2921 2922 2924 2926 2927 2929 2932 2934 2935 2936 2936 2936 2936 2935 2934 2932 2931 2928 2925 2921 2918 2914 2910 2905 2901 2896 2891 2885 2879 2873 2866 2859 2852 2845 2838 2833 2828
2907 2909 2911 2912 2913 2914 2915 2918 2921 2924 2926 2928 2930 2931 2933 2934 2934 2934 2934 2932 2930 2929 2927 2924 2921 2917 2914 2910 2905 2900 2896 2891 2886 2879 2873 2866 2859 2852 2845 2838 2831 2825 2820 2816
2904 2906 2909 2911 2914 2916 2917 2919 2922 2924 2927 2928 2929 2930 2931 2931 2931 2930 2929 2928 2926 2924 2920 2917 2913 2909 2905 2901 2897 2892 2887 2881 2875 2869 2862 2855 2848 2841 2834 2827 2822 2817 2813 2809
2906 2909 2912 2915 2917 2919 2921 2922 2923 2925 2926 2927 2927 2928 2929 2928 2928 2927 2925 2922 2919 2916 2912 2909 2907 2903 2899 2894 2889 2883 2878 2872 2866 2860 2853 2846 2839 2833 2827 2822 2817 2813 2809 2805
2911 2913 2915 2918 2920 2921 2923 2923 2923 2924 2925 2926 2926 2926 2925 2924 2922 2919 2917 2914 2912 2909 2907 2904 2900 2896 2891 2886 2882 2877 2871 2865 2858 2852 2846 2840 2835 2829 2824 2819 2815 2810 2806 2801
2913 2915 2918 2920 2921 2922 2922 2922 2922 2923 2923 2923 2923 2922 2920 2918 2916 2914 2912 2909 2907 2904 2900 2896 2892 2888 2885 2880 2874 2869 2863 2857 2852 2847 2842 2836 2831 2827 2822 2817 2812 2808 2803 2799
Wind_Speed
44 38 31 21 17 33 45 40 37 35 34 26 23 21 16 17 25 20 17 20 18 21 23 20 19 18 15 13 14 16 20 21 23 26 26 24 25 27 27 28 27 26 27 29
35 40 40 23 28 28 40 37 34 33 31 26 26 21 24 21 16 20 21 22 20 18 19 23 21 22 23 22 22 18 19 23 23 25 26 27 28 30 30 29 29 30 32 35
25 31 31 25 40 32 31 29 33 33 28 29 23 21 22 22 19 17 20 21 18 15 17 17 23 26 27 27 26 24 22 22 24 26 29 32 32 32 32 33 34 35 38 41
11 20 9 28 26 23 36 26 23 24 20 26 25 30 19 20 21 18 18 21 17 15 18 21 23 27 29 30 31 32 29 29 31 33 34 36 35 34 35 35 36 37 35 33
16 20 13 23 19 22 26 31 22 25 19 17 18 20 20 16 17 16 17 14 15 18 21 21 22 23 26 27 29 32 32 34 35 35 32 31 30 31 31 30 31 32 31 29
14 15 9 27 36 20 12 22 21 25 27 17 24 23 21 18 13 16 17 17 18 22 23 20 21 22 24 25 27 29 33 32 28 26 24 22 23 25 28 30 30 28 28 29
17 10 11 6 11 30 26 17 19 16 21 19 22 19 17 14 14 19 21 21 19 19 19 18 18 20 23 26 28 29 27 24 24 23 23 24 25 26 28 28 28 29 31 32
10 6 12 19 11 21 28 28 25 17 14 18 16 20 20 19 17 19 19 17 15 17 18 18 20 21 23 25 26 25 25 26 26 26 26 26 27 29 29 30 31 32 32 33
9 15 6 20 21 12 13 4 22 34 31 24 20 19 14 16 17 17 18 18 18 20 22 24 23 23 25 25 25 27 28 29 30 29 30 30 31 31 32 33 33 33 34 35
22 20 19 20 21 18 22 13 15 24 18 19 18 16 14 13 15 17 19 19 22 24 26 26 27 26 28 28 27 30 32 33 34 33 34 34 34 34 33 33 34 36 38 38
30 28 25 26 27 28 26 26 30 24 22 17 15 11 11 13 16 19 20 23 25 26 28 29 30 31 32 32 31 32 34 36 37 37 37 37 37 37 36 37 39 41 41 39
22 15 19 12 12 23 32 30 28 29 36 34 21 17 14 17 17 19 23 26 28 28 29 31 32 32 34 35 36 37 36 36 36 37 37 38 39 40 42 46 48 41 39 42
25 24 16 16 21 6 17 11 18 25 27 32 37 29 16 21 25 28 29 31 29 30 30 31 31 32 35 37 38 39 38 39 38 36 37 39 43 44 40 37 39 40 41 40
28 24 20 18 15 15 16 13 11 13 15 16 21 27 27 26 24 25 27 29 28 28 29 29 30 32 33 33 34 37 38 37 36 35 34 34 34 34 35 35 36 37 36 36
19 28 27 25 23 21 21 20 20 20 21 24 25 25 25 24 23 23 23 24 24 26 27 29 30 29 28 28 29 31 33 33 33 31 29 29 31 33 34 34 35 36 37 39
25 25 24 23 22 19 19 20 21 17 14 15 17 18 18 18 18 19 21 22 24 26 28 28 26 26 28 31 32 31 28 25 24 25 27 28 29 31 33 35 37 39 42 43
36 33 28 23 20 21 21 22 19 19 15 15 15 15 16 18 18 19 21 22 25 28 27 26 27 29 27 23 19 18 19 22 24 26 28 29 31 34 38 41 42 43 44 45
39 36 31 28 24 20 18 17 16 15 14 12 13 15 16 19 19 21 22 24 24 23 23 24 20 15 14 14 17 19 21 23 26 28 32 35 38 40 41 43 45 46 47 49
24 25 22 20 20 20 18 17 16 16 15 14 15 16 21 20 20 20 20 20 20 19 14 12 11 12 15 17 19 22 25 28 32 35 38 41 43 45 47 48 49 51 52 52
21 21 21 21 20 19 18 19 20 21 23 22 19 18 19 19 18 17 15 12 10 9 9 11 13 15 18 21 25 28 32 35 38 41 44 46 47 49 49 50 51 51 51 51
20 22 22 23 21 23 26 27 27 22 18 17 17 16 15 13 11 8 6 6 6 8 10 14 17 21 25 29 32 35 37 40 42 43 44 45 47 48 50 50 51 51 51 49
26 26 25 25 27 29 30 27 22 19 17 15 14 12 10 7 5 2 3 7 10 13 16 19 23 27 30 33 36 37 37 38 40 43 45 47 48 49 49 49 49 49 47 45
16 18 22 25 25 25 22 17 17 16 14 13 11 8 5 1 2 6 9 12 15 18 21 25 28 30 31 31 33 35 38 40 42 43 44 45 46 47 46 46 44 42 40 38
14 15 17 18 19 19 19 19 16 14 11 8 5 2 2 5 8 11 14 16 20 23 24 25 25 27 30 32 34 36 38 39 40 41 41 42 41 40 38 36 34 31 29 29
22 23 22 20 18 16 15 15 12 8 5 3 3 4 7 9 12 16 18 20 21 20 21 23 25 27 29 31 34 35 36 36 37 37 37 37 35 33 30 27 26 26 25 25
19 19 19 17 14 13 10 8 5 5 3 3 5 8 12 14 17 18 18 18 19 20 22 24 26 28 30 32 32 32 33 33 34 34 33 31 29 26 25 24 24 24 23 23
18 16 15 12 10 7 5 5 3 3 5 8 11 13 14 14 14 14 16 18 20 22 24 26 27 29 29 30 31 31 31 31 30 29 28 27 26 25 24 24 23 23 22 21
Wind_Direction
229 231 215 254 272 231 221 228 221 235 242 249 248 236 241 256 242 243 258 244 250 249 269 266 272 276 273 276 289 278 272 267 262 268 271 273 273 273 274 272 275 273 270 270
230 231 231 251 272 248 224 221 236 244 247 252 251 247 240 254 260 249 252 237 258 264 266 272 265 272 276 272 285 279 269 262 265 274 278 275 271 268 269 272 279 274 273 275
234 240 230 252 248 237 233 233 244 240 241 252 234 238 237 244 253 245 235 246 252 253 262 275 277 278 279 279 275 274 270 267 270 272 273 267 265 266 268 270 272 272 271 273
229 213 230 236 247 243 234 238 255 240 252 257 247 244 239 248 249 255 243 248 257 253 258 271 274 277 279 279 277 275 273 275 276 273 275 269 264 263 267 270 272 272 273 278
209 209 241 240 215 219 212 242 237 240 247 232 220 223 231 242 261 259 238 237 241 258 280 281 278 274 274 276 273 271 275 278 277 276 271 265 264 266 269 271 275 278 282 282
220 213 222 259 223 216 252 236 243 231 234 252 251 252 241 247 252 257 255 247 260 281 288 282 283 280 277 274 273 272 271 272 270 267 262 261 263 268 274 278 281 283 280 277
202 214 239 247 230 233 238 239 237 235 233 252 242 248 242 244 243 248 250 262 272 283 278 278 286 286 281 274 270 267 263 261 257 257 261 266 272 276 278 280 281 280 278 279
224 247 246 231 248 215 238 238 241 229 238 240 254 256 251 253 244 235 249 270 278 276 276 280 289 287 284 275 270 264 256 253 257 262 267 272 275 277 278 279 278 277 277 278
232 246 209 223 223 169 171 195 240 241 249 260 258 250 247 239 240 250 262 273 278 276 278 285 287 286 284 278 267 259 257 260 262 265 267 269 269 271 271 272 274 274 274 274
264 271 268 261 244 245 222 235 263 229 242 241 228 228 225 233 249 254 263 269 269 272 279 284 289 288 283 280 271 263 260 262 265 266 266 266 265 265 266 267 268 269 266 261
257 260 260 265 258 256 246 235 246 252 235 237 224 203 215 235 249 260 266 269 273 278 284 288 292 295 291 284 278 271 265 264 264 264 263 262 262 264 265 263 258 254 255 261
252 285 270 263 289 228 227 227 230 240 248 240 240 239 267 272 256 263 274 278 282 285 290 290 290 290 287 283 278 275 268 264 265 266 265 265 265 265 264 261 259 268 278 278
269 252 260 265 268 276 248 246 238 241 248 246 251 258 267 274 278 274 280 280 284 289 288 286 287 289 287 286 285 286 286 283 281 280 278 276 275 271 273 278 283 284 284 283
253 249 253 258 247 238 251 254 254 251 248 251 243 250 257 258 265 269 273 279 283 284 285 287 290 291 293 295 295 291 287 288 291 290 286 279 275 277 280 280 281 282 282 281
239 247 248 248 247 258 263 267 274 270 269 267 265 266 269 271 272 276 280 284 285 287 289 289 293 295 288 279 273 278 281 282 283 282 280 280 282 284 286 286 286 285 284 284
259 239 240 241 240 246 256 263 274 276 265 256 255 259 265 270 272 274 277 282 284 283 279 274 268 266 269 276 278 278 277 277 279 281 283 284 285 286 287 287 286 287 290 291
243 239 245 242 244 247 257 271 276 266 257 252 255 260 264 265 264 267 270 272 270 259 256 259 266 274 276 274 274 276 280 284 286 288 290 291 289 287 287 289 291 292 292 292
236 245 251 242 245 252 259 271 270 258 252 262 285 283 270 263 256 255 256 251 250 255 263 270 272 270 273 280 284 287 288 291 293 293 291 290 292 294 295 296 295 294 292 291
220 223 229 240 251 257 260 268 262 256 261 270 284 280 263 245 239 240 243 251 255 260 262 263 272 282 288 290 292 295 296 295 294 295 297 299 300 299 298 296 295 293 293 292
211 227 237 246 248 254 257 254 256 251 262 277 288 246 230 230 235 237 242 243 242 255 273 287 294 297 298 298 298 298 298 300 301 301 301 300 299 298 297 297 296 295 293 292
236 235 238 246 245 257 259 260 248 243 251 259 226 219 217 219 213 210 220 247 272 290 298 301 301 301 300 300 300 301 302 303 303 304 304 304 304 303 301 299 298 296 294 293
251 249 250 248 250 254 250 223 205 209 202 190 177 175 173 176 174 203 280 297 299 299 300 300 300 300 301 302 304 306 307 309 309 309 308 307 306 304 302 300 298 297 297 297
240 240 241 238 226 215 193 173 160 153 154 152 146 139 134 141 309 304 298 302 303 303 301 300 301 304 306 310 312 313 312 312 311 311 311 310 310 309 308 307 305 304 303 303
197 187 180 168 160 151 150 142 139 132 127 125 123 86 359 320 303 301 302 301 300 302 304 307 311 316 317 315 314 314 316 317 317 318 318 318 317 317 317 317 318 318 316 313
143 139 136 131 132 133 130 122 120 117 104 57 8 319 302 301 300 301 301 304 308 313 317 319 317 315 315 318 321 321 321 322 323 324 326 327 327 329 333 335 333 329 325 321
134 133 130 128 130 124 118 110 91 57 25 314 306 307 304 304 306 310 315 318 320 319 319 319 321 323 325 326 325 325 327 330 332 333 335 336 337 339 339 337 334 332 330 328
136 132 130 130 124 109 80 56 37 331 314 311 309 309 310 312 314 316 318 320 321 323 325 326 328 328 328 328 330 332 334 335 337 339 340 340 340 340 340 339 338 336 334 333